TimePDT,TemperatureF,Dew PointF,Humidity,Sea Level PressureIn,VisibilityMPH,Wind Direction,Wind SpeedMPH,Gust SpeedMPH,PrecipitationIn,Events,Conditions,WindDirDegrees,DateUTC
12:15 AM,-9999,-9999,N/A,29.91,10.0,SSW,4.6,-,N/A,,Overcast,200,2013-10-28 07:15:00
12:35 AM,-9999,-9999,N/A,29.90,10.0,South,5.8,-,N/A,,Overcast,180,2013-10-28 07:35:00
12:55 AM,-9999,-9999,N/A,29.90,10.0,SSE,5.8,-,N/A,,Overcast,160,2013-10-28 07:55:00
1:15 AM,-9999,-9999,N/A,29.90,10.0,SSE,5.8,-,N/A,,Overcast,160,2013-10-28 08:15:00
1:35 AM,-9999,-9999,N/A,29.90,10.0,South,5.8,-,N/A,,Overcast,190,2013-10-28 08:35:00
1:55 AM,-9999,-9999,N/A,29.89,10.0,SSW,8.1,-,N/A,,Overcast,200,2013-10-28 08:55:00
2:15 AM,-9999,-9999,N/A,29.89,10.0,South,9.2,-,N/A,,Overcast,190,2013-10-28 09:15:00
2:35 AM,-9999,-9999,N/A,29.89,10.0,South,9.2,-,N/A,,Overcast,190,2013-10-28 09:35:00
2:55 AM,-9999,-9999,N/A,29.88,10.0,South,9.2,-,N/A,,Overcast,190,2013-10-28 09:55:00
3:15 AM,-9999,-9999,N/A,29.88,9.0,South,6.9,-,N/A,,Overcast,190,2013-10-28 10:15:00
3:35 AM,-9999,-9999,N/A,29.88,5.0,South,6.9,-,N/A,Rain,Light Rain,190,2013-10-28 10:35:00
3:55 AM,-9999,-9999,N/A,29.88,3.0,Calm,Calm,-,N/A,,Overcast,0,2013-10-28 10:55:00
4:15 AM,-9999,-9999,N/A,29.88,2.5,SSE,3.5,-,0.01,,Light Drizzle,160,2013-10-28 11:15:00
4:35 AM,-9999,-9999,N/A,29.88,2.5,SSW,3.5,-,0.01,,Light Drizzle,200,2013-10-28 11:35:00
4:55 AM,-9999,-9999,N/A,29.88,2.0,South,5.8,-,0.03,,Overcast,190,2013-10-28 11:55:00
5:15 AM,-9999,-9999,N/A,29.88,5.0,Calm,Calm,-,N/A,,Haze,0,2013-10-28 12:15:00
5:35 AM,-9999,-9999,N/A,29.89,10.0,WSW,3.5,-,N/A,,Overcast,240,2013-10-28 12:35:00
5:55 AM,-9999,-9999,N/A,29.89,10.0,WSW,3.5,-,N/A,,Overcast,240,2013-10-28 12:55:00
6:15 AM,-9999,-9999,N/A,29.89,3.0,SW,3.5,-,N/A,,Overcast,230,2013-10-28 13:15:00
6:35 AM,-9999,-9999,N/A,29.89,8.0,West,8.1,-,N/A,,Light Drizzle,260,2013-10-28 13:35:00
6:47 AM,-9999,-9999,N/A,29.90,5.0,West,5.8,-,N/A,,Overcast,260,2013-10-28 13:47:00
6:55 AM,-9999,-9999,N/A,29.90,10.0,WSW,3.5,-,N/A,,Overcast,240,2013-10-28 13:55:00
7:15 AM,-9999,-9999,N/A,29.90,10.0,WSW,4.6,-,N/A,,Overcast,250,2013-10-28 14:15:00
7:35 AM,-9999,-9999,N/A,29.91,7.0,West,4.6,-,N/A,,Mostly Cloudy,260,2013-10-28 14:35:00
7:47 AM,-9999,-9999,N/A,29.91,3.0,Calm,Calm,-,N/A,Rain,Light Rain,0,2013-10-28 14:47:00
7:55 AM,-9999,-9999,N/A,29.91,1.8,SW,5.8,-,0.01,,Light Drizzle,220,2013-10-28 14:55:00
8:15 AM,-9999,-9999,N/A,29.92,2.5,West,10.4,-,N/A,,Light Drizzle,270,2013-10-28 15:15:00
8:35 AM,-9999,-9999,N/A,29.93,4.0,West,6.9,-,N/A,,Haze,270,2013-10-28 15:35:00
8:47 AM,-9999,-9999,N/A,29.93,4.0,Variable,6.9,-,N/A,,Overcast,0,2013-10-28 15:47:00
8:55 AM,-9999,-9999,N/A,29.93,8.0,West,9.2,-,N/A,,Overcast,280,2013-10-28 15:55:00
9:10 AM,-9999,-9999,N/A,29.91,4.0,Variable,6.9,-,N/A,,Overcast,0,2013-10-28 16:10:00
9:15 AM,-9999,-9999,N/A,29.94,10.0,West,6.9,-,N/A,,Mostly Cloudy,270,2013-10-28 16:15:00
9:35 AM,-9999,-9999,N/A,29.94,5.0,West,5.8,-,N/A,,Haze,280,2013-10-28 16:35:00
9:55 AM,-9999,-9999,N/A,29.94,2.5,West,8.1,-,N/A,,Light Drizzle,270,2013-10-28 16:55:00
9:57 AM,-9999,-9999,N/A,29.95,1.5,West,9.2,-,N/A,Rain,Light Rain,260,2013-10-28 16:57:00
10:15 AM,-9999,-9999,N/A,29.94,2.5,West,6.9,-,N/A,,Overcast,280,2013-10-28 17:15:00
10:35 AM,-9999,-9999,N/A,29.95,4.0,West,8.1,-,N/A,,Haze,260,2013-10-28 17:35:00
10:47 AM,-9999,-9999,N/A,29.96,1.5,West,6.9,-,N/A,,Overcast,280,2013-10-28 17:47:00
10:55 AM,-9999,-9999,N/A,29.95,2.0,West,5.8,-,N/A,,Overcast,280,2013-10-28 17:55:00
11:15 AM,-9999,-9999,N/A,29.95,1.5,WSW,6.9,-,N/A,,Overcast,250,2013-10-28 18:15:00
11:35 AM,-9999,-9999,N/A,29.95,10.0,Calm,Calm,-,N/A,,Overcast,0,2013-10-28 18:35:00
11:47 AM,-9999,-9999,N/A,29.95,7.0,Calm,Calm,-,N/A,,Overcast,0,2013-10-28 18:47:00
11:55 AM,-9999,-9999,N/A,29.94,10.0,Calm,Calm,-,0.01,,Overcast,0,2013-10-28 18:55:00
12:15 PM,-9999,-9999,N/A,29.94,10.0,SSW,3.5,-,N/A,,Overcast,210,2013-10-28 19:15:00
12:35 PM,-9999,-9999,N/A,29.94,10.0,SW,4.6,-,N/A,,Overcast,230,2013-10-28 19:35:00
12:50 PM,-9999,-9999,N/A,29.94,5.0,Variable,6.9,-,N/A,,Overcast,0,2013-10-28 19:50:00
12:55 PM,-9999,-9999,N/A,29.93,10.0,SSW,8.1,-,N/A,,Overcast,200,2013-10-28 19:55:00
1:15 PM,-9999,-9999,N/A,29.93,10.0,South,5.8,-,N/A,,Overcast,170,2013-10-28 20:15:00
1:35 PM,-9999,-9999,N/A,29.92,10.0,South,8.1,-,N/A,,Mostly Cloudy,170,2013-10-28 20:35:00
1:55 PM,-9999,-9999,N/A,29.92,10.0,South,5.8,-,N/A,,Overcast,180,2013-10-28 20:55:00
2:15 PM,-9999,-9999,N/A,29.92,10.0,SSW,5.8,-,N/A,,Overcast,210,2013-10-28 21:15:00
2:35 PM,-9999,-9999,N/A,29.91,10.0,South,8.1,-,N/A,,Mostly Cloudy,180,2013-10-28 21:35:00
2:55 PM,-9999,-9999,N/A,29.91,10.0,SSW,8.1,-,N/A,,Mostly Cloudy,200,2013-10-28 21:55:00
3:15 PM,-9999,-9999,N/A,29.91,10.0,South,6.9,-,N/A,,Mostly Cloudy,190,2013-10-28 22:15:00
3:35 PM,-9999,-9999,N/A,29.91,10.0,South,6.9,-,N/A,,Mostly Cloudy,180,2013-10-28 22:35:00
3:55 PM,-9999,-9999,N/A,29.91,10.0,SSW,6.9,-,N/A,,Overcast,210,2013-10-28 22:55:00
4:15 PM,-9999,-9999,N/A,29.91,10.0,South,9.2,-,N/A,,Mostly Cloudy,170,2013-10-28 23:15:00
4:35 PM,-9999,-9999,N/A,29.91,10.0,SSW,6.9,-,N/A,,Mostly Cloudy,210,2013-10-28 23:35:00
4:55 PM,-9999,-9999,N/A,29.92,10.0,WSW,5.8,-,N/A,,Mostly Cloudy,240,2013-10-28 23:55:00
5:15 PM,-9999,-9999,N/A,29.92,10.0,SW,9.2,-,N/A,,Overcast,230,2013-10-29 00:15:00
5:35 PM,-9999,-9999,N/A,29.92,10.0,SSW,8.1,-,N/A,,Mostly Cloudy,210,2013-10-29 00:35:00
5:55 PM,-9999,-9999,N/A,29.92,10.0,SSW,8.1,-,N/A,,Overcast,210,2013-10-29 00:55:00
6:01 PM,-9999,-9999,N/A,29.93,12.0,Variable,6.9,-,N/A,,Overcast,0,2013-10-29 01:01:00
6:15 PM,-9999,-9999,N/A,29.92,10.0,SW,8.1,-,N/A,,Mostly Cloudy,220,2013-10-29 01:15:00
6:35 PM,-9999,-9999,N/A,29.92,10.0,South,6.9,-,N/A,,Mostly Cloudy,190,2013-10-29 01:35:00
6:55 PM,-9999,-9999,N/A,29.93,10.0,SSW,8.1,-,N/A,,Mostly Cloudy,200,2013-10-29 01:55:00
7:15 PM,-9999,-9999,N/A,29.93,10.0,South,6.9,-,N/A,,Mostly Cloudy,190,2013-10-29 02:15:00
7:35 PM,-9999,-9999,N/A,29.93,10.0,South,5.8,-,N/A,,Partly Cloudy,180,2013-10-29 02:35:00
7:55 PM,-9999,-9999,N/A,29.93,10.0,South,5.8,-,N/A,,Clear,180,2013-10-29 02:55:00
8:15 PM,-9999,-9999,N/A,29.94,10.0,South,4.6,-,N/A,,Clear,180,2013-10-29 03:15:00
8:35 PM,-9999,-9999,N/A,29.94,10.0,South,4.6,-,N/A,,Partly Cloudy,180,2013-10-29 03:35:00
8:55 PM,-9999,-9999,N/A,29.95,10.0,South,5.8,-,N/A,,Partly Cloudy,180,2013-10-29 03:55:00
9:15 PM,-9999,-9999,N/A,29.95,10.0,SSE,5.8,-,N/A,,Clear,160,2013-10-29 04:15:00
9:35 PM,-9999,-9999,N/A,29.95,10.0,SSE,8.1,-,N/A,,Scattered Clouds,160,2013-10-29 04:35:00
9:55 PM,-9999,-9999,N/A,29.95,10.0,SSE,4.6,-,N/A,,Scattered Clouds,150,2013-10-29 04:55:00
10:15 PM,-9999,-9999,N/A,29.96,10.0,SSE,4.6,-,N/A,,Scattered Clouds,150,2013-10-29 05:15:00
10:35 PM,-9999,-9999,N/A,29.96,10.0,SSE,5.8,-,N/A,,Clear,150,2013-10-29 05:35:00
10:55 PM,-9999,-9999,N/A,29.95,10.0,SSE,6.9,-,N/A,,Clear,160,2013-10-29 05:55:00
11:15 PM,-9999,-9999,N/A,29.95,10.0,South,6.9,-,N/A,,Partly Cloudy,170,2013-10-29 06:15:00
11:35 PM,-9999,-9999,N/A,29.95,10.0,SSE,8.1,-,N/A,,Clear,160,2013-10-29 06:35:00
11:55 PM,-9999,-9999,N/A,29.95,10.0,SSE,5.8,-,N/A,,Clear,160,2013-10-29 06:55:00